Weather History for Providence, RI

Change the Weather History Date:

Sunday, May 12, 2013

  Actual Average Record
Temperature  
Mean Temperature 62 °F 57 °F  
Max Temperature 73 °F 67 °F 90 °F (2001)
Min Temperature 50 °F 47 °F 32 °F (1907)
Degree Days  
Heating Degree Days 3 8  
Month to date heating degree days 79 116  
Since 1 July heating degree days 5183 5466  
Cooling Degree Days 0 0  
Month to date cooling degree days 0 0  
Year to date cooling degree days 0 2  
Growing Degree Days 13 (Base 50)    
Moisture  
Dew Point 52 °F    
Average Humidity 70    
Maximum Humidity 100    
Minimum Humidity 40    
Precipitation  
Precipitation 0.02 in 0.11 in 1.60 in (1952)
Month to date precipitation 0.78 1.34  
Year to date precipitation 12.36 17.86  
Snow  
Snow 0.00 in 0.00 in 0.00 in (2001)
Month to date snowfall 0.0 0.0  
Since 1 July snowfall 46.3 33.8  
Snow Depth 0.00 in    
Sea Level Pressure  
Sea Level Pressure 29.67 in    
Wind  
Wind Speed 9 mph (SW)    
Max Wind Speed 16 mph    
Max Gust Speed 26 mph    
Visibility 5 miles    
Events Fog , Rain    
T = Trace of Precipitation, MM = Missing Value Source: NWS Daily Summary

Daily Weather History Graph

Daily Weather History Graph

Search for Another Location

Airport:

Trip Planner

Search our weather history database for the weather conditions in past years. The results will help you decide how hot, cold, wet, or windy it might be!

Date:

Astronomy

May. 12, 2013 Rise Set
Actual Time 5:28 AM EDT 7:55 PM EDT
Civil Twilight 4:57 AM EDT 8:27 PM EDT
Nautical Twilight 4:18 AM EDT 9:06 PM EDT
Astronomical Twilight 3:34 AM EDT 9:50 PM EDT
Moon 7:21 AM EDT (5/12) 10:21 PM EDT (5/12)
Length of Visible Light 15h 30m
Length of Day
14h 27m
Waxing Crescent, 6% of the Moon is Illuminated
May 12
Waxing Crescent
May 18
First Quarter
May 25
Full
May 31
Last Quarter
Jun 8
New

Hourly Weather History & Observations

Time (EDT) Temp. Dew Point Humidity Pressure Visibility Wind Dir Wind Speed Gust Speed Precip Events Conditions
12:51 AM 60.1 °F 59.0 °F 96% 29.70 in 7.0 mi SW 4.6 mph - N/A   Overcast
1:48 AM 60.8 °F 57.2 °F 88% 29.70 in 3.0 mi South 8.1 mph - N/A   Overcast
1:51 AM 59.0 °F 57.9 °F 96% 29.69 in 3.0 mi South 8.1 mph - N/A   Overcast
2:44 AM 57.2 °F 57.2 °F 100% 29.69 in 1.8 mi SE 4.6 mph - N/A   Overcast
2:51 AM 57.9 °F 57.0 °F 97% 29.69 in 1.0 mi SSE 4.6 mph - N/A   Overcast
3:04 AM 57.2 °F 57.2 °F 100% 29.69 in 2.5 mi SE 4.6 mph - N/A   Overcast
3:15 AM 57.2 °F 57.2 °F 100% 29.68 in 1.0 mi SE 3.5 mph - N/A   Overcast
3:23 AM 57.2 °F 57.2 °F 100% 29.67 in 0.8 mi SE 5.8 mph - N/A   Mist
3:51 AM 57.0 °F 57.0 °F 100% 29.66 in 0.5 mi SSE 6.9 mph - N/A Fog Fog
4:07 AM 57.2 °F 55.4 °F 94% 29.65 in 0.2 mi SSE 8.1 mph - N/A Fog Fog
4:20 AM 57.2 °F 55.4 °F 94% 29.67 in 0.2 mi South 6.9 mph - N/A Fog Fog
4:37 AM 57.2 °F 55.4 °F 94% 29.68 in 0.5 mi South 6.9 mph - 0.00 in Fog , Rain Light Rain
4:51 AM 57.0 °F 57.0 °F 100% 29.68 in 0.5 mi South 4.6 mph - 0.00 in Fog , Rain Light Rain
5:16 AM 57.2 °F 57.2 °F 100% 29.67 in 1.0 mi South 4.6 mph - 0.01 in Rain Light Rain
5:51 AM 57.0 °F 55.9 °F 96% 29.67 in 1.0 mi South 8.1 mph - 0.01 in   Overcast
6:51 AM 57.0 °F 55.9 °F 96% 29.67 in 1.5 mi South 6.9 mph - 0.00 in Rain Light Rain
7:51 AM 57.0 °F 55.9 °F 96% 29.67 in 1.5 mi South 5.8 mph - 0.01 in Rain Light Rain
8:51 AM 59.0 °F 57.9 °F 96% 29.65 in 1.5 mi SSW 3.5 mph - 0.00 in   Overcast
9:14 AM 60.8 °F 57.2 °F 88% 29.65 in 5.0 mi SSW 4.6 mph - N/A   Overcast
9:25 AM 60.8 °F 57.2 °F 88% 29.65 in 5.0 mi SW 5.8 mph - N/A   Overcast
9:51 AM 60.1 °F 57.9 °F 93% 29.65 in 3.0 mi SW 4.6 mph - 0.00 in Rain Light Rain
10:51 AM 62.1 °F 59.0 °F 90% 29.63 in 3.0 mi SW 5.8 mph - 0.00 in   Overcast
11:51 AM 66.0 °F 55.9 °F 70% 29.63 in 10.0 mi SW 10.4 mph - N/A   Mostly Cloudy
12:51 PM 68.0 °F 53.1 °F 59% 29.62 in 10.0 mi WSW 13.8 mph 23.0 mph N/A   Mostly Cloudy
12:58 PM 66.2 °F 51.8 °F 60% 29.63 in 10.0 mi West 12.7 mph - N/A   Mostly Cloudy
1:51 PM 69.1 °F 51.1 °F 53% 29.61 in 10.0 mi West 11.5 mph - N/A   Mostly Cloudy
2:51 PM 72.0 °F 48.9 °F 44% 29.60 in 10.0 mi WSW 12.7 mph 21.9 mph N/A   Mostly Cloudy
3:51 PM 70.0 °F 45.0 °F 41% 29.60 in 10.0 mi West 6.9 mph 18.4 mph N/A   Mostly Cloudy
4:51 PM 71.1 °F 48.9 °F 45% 29.60 in 10.0 mi WSW 13.8 mph 23.0 mph N/A   Scattered Clouds
5:40 PM 68.0 °F 46.4 °F 46% 29.63 in 10.0 mi NW 15.0 mph 24.2 mph N/A   Scattered Clouds
5:51 PM 66.0 °F 45.0 °F 47% 29.63 in 10.0 mi WNW 16.1 mph 26.5 mph N/A   Scattered Clouds
6:51 PM 63.0 °F 41.0 °F 45% 29.68 in 10.0 mi WNW 16.1 mph - N/A   Scattered Clouds
7:51 PM 60.1 °F 37.9 °F 44% 29.71 in 10.0 mi WNW 10.4 mph - N/A   Scattered Clouds
8:51 PM 57.9 °F 36.0 °F 44% 29.74 in 10.0 mi NW 6.9 mph - N/A   Partly Cloudy
9:51 PM 55.9 °F 32.0 °F 40% 29.78 in 10.0 mi NW 6.9 mph - N/A   Mostly Cloudy
10:51 PM 53.1 °F 33.1 °F 47% 29.81 in 10.0 mi WNW 6.9 mph - N/A   Partly Cloudy
11:51 PM 52.0 °F 28.9 °F 41% 29.84 in 10.0 mi West 8.1 mph - N/A   Clear